Weather History for KAFW - November, 2011

Change the Weather History Date:

Monday, November 14, 2011

  Actual Average Record
Temperature  
Mean Temperature 73 °F -  
Max Temperature 80 °F 63 °F 86 °F (1999)
Min Temperature 66 °F 45 °F 24 °F (2014)
Cooling Degree Days 8    
Growing Degree Days 23 (Base 50)    
Moisture  
Dew Point 63 °F    
Average Humidity 73    
Maximum Humidity 90    
Minimum Humidity 54    
Precipitation  
Precipitation 0.00 in - - ()
Sea Level Pressure  
Sea Level Pressure 29.76 in    
Wind  
Wind Speed 10 mph (SSW)    
Max Wind Speed 20 mph    
Max Gust Speed 29 mph    
Visibility 9 miles    
Events      
Averages and records for this station are not official NWS values.
T = Trace of Precipitation, MM = Missing Value Source: NWS Daily Summary

Daily Weather History Graph

Daily Weather History Graph

Search for Another Location

Airport or City:

Trip Planner

Search our weather history database for the weather conditions in past years. The results will help you decide how hot, cold, wet, or windy it might be!

Date:

Astronomy

Nov. 14, 2011 Rise Set
Actual Time 6:58 AM CST 5:28 PM CST
Civil Twilight 6:32 AM CST 5:54 PM CST
Nautical Twilight 6:02 AM CST 6:24 PM CST
Astronomical Twilight 5:33 AM CST 6:53 PM CST
Moon 8:40 PM CST (11/14) 10:13 AM CST (11/14)
Length of Visible Light 11h 21m
Length of Day
10h 29m
Waning Gibbous, 86% of the Moon is Illuminated
Nov 14
Waning Gibbous
Nov 18
Last Quarter
Nov 25
New
Dec 2
First Quarter
Dec 10
Full

Hourly Weather History & Observations

Time (CST) Temp. Heat Index Dew Point Humidity Pressure Visibility Wind Dir Wind Speed Gust Speed Precip Events Conditions
12:53 AM 69.1 °F - 60.1 °F 73% 29.75 in 10.0 mi South 6.9 mph - N/A   Clear
1:53 AM 71.1 °F - 63.0 °F 75% 29.75 in 10.0 mi South 11.5 mph 25.3 mph N/A   Clear
2:53 AM 70.0 °F - 64.0 °F 81% 29.75 in 10.0 mi South 13.8 mph 21.9 mph N/A   Clear
3:53 AM 69.1 °F - 64.0 °F 84% 29.75 in 10.0 mi South 11.5 mph 21.9 mph N/A   Clear
4:53 AM 68.0 °F - 64.0 °F 87% 29.76 in 9.0 mi South 11.5 mph 18.4 mph N/A   Scattered Clouds
5:53 AM 68.0 °F - 64.0 °F 87% 29.78 in 9.0 mi South 10.4 mph 20.7 mph N/A   Partly Cloudy
6:53 AM 66.9 °F - 64.0 °F 90% 29.79 in 7.0 mi SSW 11.5 mph 19.6 mph N/A   Partly Cloudy
7:53 AM 69.1 °F - 64.0 °F 84% 29.80 in 6.0 mi SSW 10.4 mph 16.1 mph N/A   Haze
8:53 AM 72.0 °F - 64.9 °F 78% 29.82 in 7.0 mi SSW 17.3 mph 23.0 mph N/A   Clear
9:53 AM 73.9 °F - 64.9 °F 73% 29.82 in 8.0 mi SSW 16.1 mph 27.6 mph N/A   Mostly Cloudy
10:02 AM 75.2 °F - 64.4 °F 69% 29.85 in 8.0 mi SW 19.6 mph 28.8 mph N/A   Scattered Clouds
10:53 AM 75.9 °F - 64.0 °F 67% 29.81 in 9.0 mi SSW 15.0 mph 21.9 mph N/A   Partly Cloudy
11:53 AM 78.1 °F - 63.0 °F 60% 29.80 in 10.0 mi SSW 11.5 mph 19.6 mph N/A   Mostly Cloudy
12:53 PM 80.1 °F 81.2 °F 62.1 °F 54% 29.76 in 10.0 mi South 9.2 mph 19.6 mph N/A   Partly Cloudy
1:53 PM 79.0 °F - 61.0 °F 54% 29.74 in 10.0 mi SSW 6.9 mph - N/A   Scattered Clouds
2:53 PM 80.1 °F 81.2 °F 62.1 °F 54% 29.71 in 10.0 mi South 9.2 mph - N/A   Partly Cloudy
3:53 PM 79.0 °F - 63.0 °F 58% 29.70 in 10.0 mi South 8.1 mph - N/A   Partly Cloudy
4:53 PM 75.9 °F - 62.1 °F 62% 29.70 in 10.0 mi South 5.8 mph - N/A   Partly Cloudy
5:53 PM 72.0 °F - 62.1 °F 71% 29.71 in 10.0 mi SSE 3.5 mph - N/A   Clear
6:53 PM 72.0 °F - 61.0 °F 68% 29.73 in 10.0 mi Calm Calm - N/A   Clear
7:53 PM 70.0 °F - 61.0 °F 73% 29.73 in 10.0 mi Calm Calm - N/A   Clear
8:53 PM 69.1 °F - 62.1 °F 78% 29.73 in 10.0 mi South 3.5 mph - N/A   Scattered Clouds
9:53 PM 69.1 °F - 62.1 °F 78% 29.73 in 10.0 mi Calm Calm - N/A   Partly Cloudy
10:53 PM 69.1 °F - 62.1 °F 78% 29.73 in 10.0 mi WSW 4.6 mph - N/A   Mostly Cloudy
11:53 PM 68.0 °F - 61.0 °F 78% 29.72 in 10.0 mi SW 5.8 mph - N/A   Partly Cloudy